Hourly Data Report for October 24, 2019

QUALICUM BEACH AIRPORT
BRITISH COLUMBIA
Current Station Operator: ECCC - MSC

49°20'14.000" N
124°23'38.000" W
58.20 m
1026562
71766
VOQ

Download Data

Hourly Data (October 2019)
Hourly Data Report for October 24, 2019
TIME
LST
Temp Definition
°C
Dew Point Definition
°C
Rel Hum Definition
%
Precip. Amount Definition
mm

Wind Dir Definition
10's deg

Wind Spd Definition
km/h
Visibility Definition
km
Stn Press Definition
kPa
Hmdx Definition


Wind Chill Definition


Weather Definition


00:00 7.9 7.1 95 0.0 27 2   102.39     LegendNANA
01:00 7.8 7.1 96 0.6 21 5   102.34     LegendNANA
02:00 7.8 7.3 96 0.0 17 2   102.27     LegendNANA
03:00 7.9 7.4 97 0.0 32 3   102.24     LegendNANA
04:00 8.1 7.6 97 0.0 15 2   102.16     LegendNANA
05:00 8.2 7.7 97 0.0 0 1   102.15     LegendNANA
06:00 8.5 7.9 96 0.0 13 5   102.12     LegendNANA
07:00 8.4 7.8 96 0.0   0   102.19     LegendNANA
08:00 8.7 8.0 96 0.1   0   102.20     LegendNANA
09:00 9.4 8.4 94 0.0 14 4   102.18     LegendNANA
10:00 10.0 8.6 91 0.0 11 5   102.20     LegendNANA
11:00 11.2 8.9 86 0.0 10 6   102.13     LegendNANA
12:00 11.1 8.7 86 0.0 10 11   102.09     LegendNANA
13:00 11.1 8.8 86 0.0 10 14   102.02     LegendNANA
14:00 11.5 9.3 86 0.0 10 11   101.99     LegendNANA
15:00 11.9 8.5 80 0.0 10 12   101.92     LegendNANA
16:00 11.8 8.7 82 0.0 11 7   101.87     LegendNANA
17:00 11.2 8.8 85 0.0 9 6   101.82     LegendNANA
18:00 10.6 8.5 87 0.0 11 9   101.80     LegendNANA
19:00 9.8 8.3 90 0.0 15 3   101.79     LegendNANA
20:00 9.0 7.9 93 0.0 16 6   101.71     LegendNANA
21:00 8.9 8.1 95 0.0 12 3   101.70     LegendNANA
22:00 9.1 8.2 94 0.0 16 4   101.62     LegendNANA
23:00 9.2 8.2 94 0.0 16 6   101.58     LegendNANA

Notes on Data Quality.

Legend

  • E = Estimated
  • M = Missing
  • NA = Not Available*
  • [empty] = Indicates an unobserved value
Date modified: